Regional Weather Roundup
Issued by NWS

Home | Current Version | Previous Version | Graphics & Text | Print | Product List | Glossary On
Versions: 1 2 3 4 5 6 7 8 9 10 11 12 13 14 15 16 17 18 19 20 21 22 23 24 25 26 27 28 29 30 31 32 33 34 35 36 37 38 39 40 41 42 43 44 45 46 47 48 49 50
600
ASUS43 KOAX 261402
RWRNE

WEATHER ROUNDUP FOR NEBRASKA
NATIONAL WEATHER SERVICE OMAHA NE
900 AM CDT SUN MAR 26 2017

NOTES: SATELLITE DATA IS BEING USED TO AUGMENT CLOUD COVER ABOVE
       12000 FEET.
       "FAIR" INDICATES FEW OR NO CLOUDS BELOW 12,000 FEET WITH NO
       SIGNIFICANT WEATHER AND/OR OBSTRUCTIONS TO VISIBILITY.

  * THESE STATIONS DO NOT REPORT WEATHER SUCH AS RAIN...SNOW OR FOG.

NEZ001>004-019>022-054>056-261500-
NEBRASKA PANHANDLE

CITY           SKY/WX    TMP DP  RH WIND       PRES   REMARKS
SCOTTSBLUFF    CLOUDY    44  31  60 NW8       29.84R
ALLIANCE       CLOUDY    39  37  92 CALM      29.83R
CHADRON        CLOUDY    44  33  65 N7        29.87R
KIMBALL        CLOUDY    44  39  85 NW7       29.84R
SIDNEY         LGT RAIN  42  34  73 S8        29.83R
$$

NEZ057>060-069>072-079>082-261500-
SOUTHWEST NEBRASKA

CITY           SKY/WX    TMP DP  RH WIND       PRES   REMARKS
NORTH PLATTE   CLOUDY    41  37  86 NW5       29.88R
IMPERIAL       CLOUDY    39  38  96 SE8       29.86R FOG     WCI  33
LEXINGTON      CLOUDY    40  37  89 CALM      29.90R
MCCOOK         CLOUDY    40  40 100 S5        29.89R FOG
OGALLALA       CLOUDY    40  40  97 SE3       29.86R FOG
$$

NEZ005>010-023>029-035>040-094-261500-
NORTH CENTRAL NEBRASKA

CITY           SKY/WX    TMP DP  RH WIND       PRES   REMARKS
VALENTINE      CLOUDY    39  36  89 SW6       29.87S WCI  35
AINSWORTH      FOG       38  38 100 SW6       29.88S VSB 1/2 WCI  34
BROKEN BOW     CLOUDY    41  40  96 W6        29.88R FOG
O`NEILL        FOG       39  39  99 CALM      29.91R VSB 1/4
ORD            FOG       40  38  93 CALM      29.89R VSB 1/2
THEDFORD       CLOUDY    40  40  97 W5        29.88R FOG
$$

NEZ041-046>049-061>064-073>077-083>087-261500-
SOUTH CENTRAL NEBRASKA

CITY           SKY/WX    TMP DP  RH WIND       PRES   REMARKS
GRAND ISLAND   CLOUDY    39  39 100 E3        29.91R FOG
AURORA         CLOUDY    38  38 100 CALM      29.91R FOG
HASTINGS       CLOUDY    40  39  97 CALM      29.91R FOG
HEBRON         CLOUDY    40  39  98 CALM      29.92R FOG
HOLDREGE       CLOUDY    40  39  97 CALM      29.90R FOG
KEARNEY *      CLOUDY    39  37  93 CALM      29.91R
YORK           CLOUDY    39  39 100 CALM      29.91R FOG
$$

NEZ011>018-030>034-042>045-261500-
NORTHEAST NEBRASKA

CITY           SKY/WX    TMP DP  RH WIND       PRES   REMARKS
NORFOLK        CLOUDY    39  36  89 N3        29.91R
ALBION         CLOUDY    41  38  88 NE3       29.90S FOG
BLAIR          CLOUDY    40  39  97 N9        29.89S FOG     WCI  33
FREMONT        CLOUDY    40  40 100 NW5       29.91R
TEKAMAH        CLOUDY    41  38  89 N9        29.90F
WAYNE          CLOUDY    38  38  99 N5        29.91S FOG     WCI  35
$$

NEZ050>053-065>068-078-088>093-261500-
SOUTHEAST NEBRASKA

CITY           SKY/WX    TMP DP  RH WIND       PRES   REMARKS
LINCOLN        CLOUDY    41  39  93 NW6       29.93R
OMAHA EPPLEY   CLOUDY    42  38  85 N8        29.90S FOG
BEATRICE       CLOUDY    41  40  97 CALM      29.91S FOG
FALLS CITY     CLOUDY    43  41  93 N6        29.89F
NEBRASKA CITY  CLOUDY    41  41 100 N5        29.90S FOG
PLATTSMOUTH    CLOUDY    41  38  90 N5        29.90R
$$

NEZ044-045-051>053-067-261500-
OMAHA AREA

CITY           SKY/WX    TMP DP  RH WIND       PRES   REMARKS
OMAHA EPPLEY   CLOUDY    42  38  85 N8        29.90S FOG
BLAIR          CLOUDY    40  39  97 N9        29.89S FOG     WCI  33
FREMONT        CLOUDY    40  40 100 NW5       29.91R
MILLARD        CLOUDY    43  40  91 CALM      29.91R
OFFUTT AFB     CLOUDY    42  39  89 N6        29.90S
PLATTSMOUTH    CLOUDY    41  38  90 N5        29.90R
WAHOO          CLOUDY    40  39  95 N6        29.92R
$$




USA.gov is the U.S. government's official web portal to all federal, state and local government web resources and services.